Flag for Sudan Weather past 2 weeks in Kassala, Sudan

Now
79 °F

Sunny.


Feels Like: 78 °F
Forecast: 72 / 104 °F
Wind: 12 mph from North

Location: Khartoum Airport

Current Time: Mar 6, 2015 at 9:33:24 AM

Latest Report: Mar 6, 2015 at 9:00 AM


Visibility: 10 mi

Pressure: 29.92 "Hg

Humidity: 15%

Dew point: 27 °F

Location of KassalaLocation

Historic Weather in Kassala — Graph

°F

Kassala temperature yesterday

Maximum temperature yesterday: 99 °F (at 5:00 PM)
Minimum temperature yesterday: 77 °F (at 8:00 AM)
Average temperature yesterday: 88 °F

Past Weeks' High & Low Weather Summary

 TemperatureHumidityPressure
High106 °F (Feb 27, 3:00 PM)35% (Mar 3, 10:00 AM)30.01 "Hg (Mar 3, 10:00 AM)
Low61 °F (Feb 21, 8:00 AM)1% (Feb 25, 2:00 PM)29.68 "Hg (Feb 22, 9:30 AM)
Average85 °F16%29.83 "Hg
* Reported Feb 19 8:00 AM — Mar 6 8:30 AM, Kassala, Weather by CustomWeather, © 2015

Note: Actual official high and low records may vary slightly from our data, if they occured in-between our weather recording intervals... More about our weather records

Advertising

Kassala weather history for previous 24 hours

 ConditionsComfort  
Time TempWeatherWind HumidityBarometerVisibility
8:30 AM
Fri, Mar 6
N/ASunny.14 mphN/A29.92 "Hg10 mi
8:00 AM77 °FSunny.12 mph18%29.92 "Hg10 mi
7:30 AMN/ASunny.10 mphN/A29.89 "Hg10 mi
7:00 AM77 °FClear.12 mph18%29.89 "Hg10 mi
6:30 AMN/AClear.13 mphN/A29.86 "Hg10 mi
6:00 AM79 °FClear.16 mph15%29.86 "Hg10 mi
5:30 AMN/AClear.14 mphN/A29.86 "Hg10 mi
5:00 AM79 °FClear.12 mph15%29.83 "Hg10 mi
4:30 AMN/AClear.12 mphN/A29.83 "Hg10 mi
4:00 AMN/AClear.12 mphN/AN/A10 mi
3:30 AMN/AClear.12 mphN/A29.83 "Hg10 mi
3:00 AM82 °FClear.14 mph14%29.83 "Hg10 mi
2:30 AMN/AClear.13 mphN/A29.83 "Hg10 mi
2:00 AM82 °FClear.9 mph14%29.86 "Hg10 mi
1:30 AMN/AClear.9 mphN/A29.86 "Hg10 mi
1:00 AM84 °FClear.9 mph16%29.86 "Hg10 mi
12:30 AMN/AClear.8 mphN/A29.86 "Hg10 mi
12:00 AM88 °FClear.10 mph13%29.86 "Hg10 mi
10:00 PM
Thu, Mar 5
90 °FClear.14 mph10%29.86 "Hg10 mi
9:30 PMN/AClear.14 mphN/A29.83 "Hg10 mi
9:00 PM91 °FClear.12 mph12%29.83 "Hg10 mi
8:30 PMN/AClear.12 mphN/A29.80 "Hg10 mi
8:00 PM93 °FClear.9 mph12%29.80 "Hg10 mi
7:30 PMN/AClear.10 mphN/A29.80 "Hg10 mi
7:00 PM95 °FClear.12 mph11%29.77 "Hg10 mi
6:30 PMN/ASunny.12 mphN/A29.77 "Hg10 mi
6:00 PM97 °FSunny.17 mph8%29.77 "Hg10 mi
5:30 PMN/ASunny.14 mphN/A29.74 "Hg10 mi
5:00 PM99 °FSunny.20 mph10%29.74 "Hg10 mi
4:30 PMN/A15 mphN/A29.74 "Hg5 mi
4:00 PM97 °FSunny.18 mph9%29.77 "Hg10 mi
3:30 PMN/A18 mphN/A29.77 "Hg5 mi
3:00 PM97 °FExtremely hot.23 mph10%29.77 "Hg5 mi
2:30 PMN/ASunny.17 mphN/A29.80 "Hg10 mi
2:00 PM93 °FSunny.20 mph14%29.83 "Hg10 mi
1:30 PMN/ASunny.17 mphN/A29.83 "Hg10 mi
1:00 PM91 °FSunny.15 mph14%29.83 "Hg10 mi
12:30 PMN/ASunny.17 mphN/A29.86 "Hg10 mi
12:00 PM88 °FSunny.15 mph15%29.89 "Hg10 mi
11:30 AMN/ASunny.14 mphN/A29.89 "Hg10 mi
11:00 AM84 °FSandstorm.15 mph16%29.89 "Hg5 mi
10:30 AMN/ASandstorm.14 mphN/A29.89 "Hg5 mi
10:00 AM81 °FSandstorm.14 mph17%29.89 "Hg5 mi
9:30 AMN/ASunny.12 mphN/A29.89 "Hg10 mi
9:00 AM79 °FSunny.10 mph15%29.89 "Hg10 mi
Weather by CustomWeather, © 2015

See weather overviewHow to use our weather pages